{"data":{"norad_id":63355,"intl_designator":"2025-061E","name":"LEMUR-2-NEUROSPICY","alt_names":[],"object_type":"PAYLOAD","status":"ACTIVE","operator":null,"country":"US","launch_date":"2025-03-26","launch_site_code":"RLLB","launch_vehicle":null,"mission":null,"orbit_class":"UNKNOWN","rcs_meters":null,"size_class":null,"mass_kg":null,"dimensions":null,"purposes":["earth_obs"],"wikipedia_slug":null,"has_3d_model":false,"image_url":null,"decayed_at":null,"tle_current":{"epoch":"2026-05-25T04:19:43.210272Z","epoch_age_seconds":59766,"freshness":"FRESH","line1":"1 63355U 25061E   26145.18036123  .00003552  00000+0  19878-3 0  9998","line2":"2 63355  97.5611 121.0227 0016387 345.5285  14.5475 15.13996249 64134","mean_motion":15.13996249,"eccentricity":0.0016387,"inclination_deg":97.5611,"raan_deg":121.0227,"arg_perigee_deg":345.5285,"mean_anomaly_deg":14.5475,"bstar":0.00019878,"rev_number":6413,"period_min":95.11252098221,"perigee_km":512.71696861122,"apogee_km":535.33812269315,"semimajor_km":6902.1645456522,"source":"CELESTRAK","updated_at":"2026-05-25T13:38:13.541581Z"}}}